Location: Newark
(13.9667°S, 33.8167°E)
Time: 01:36:05
(UTC+00:00)

Hubble Space Telescope - Visible Passes

Search period start: 20 September 2019 00:00
Search period end: 30 September 2019 00:00
Orbit: 536 x 540 km, 28.5° (Epoch: 19 September)

Date Brightness Start Highest point End Pass type
(mag) Time Alt. Az. Time Alt. Az. Time Alt. Az.
20 Sep 0.7 16:37:34 10° WSW 16:41:45 88° NNW 16:43:48 29° ENE visible
21 Sep 1.1 16:27:04 10° WSW 16:31:11 63° NNW 16:34:17 17° NE visible
22 Sep 1.7 16:16:39 10° WSW 16:20:37 45° NNW 16:24:35 10° NE visible
23 Sep 2.3 16:06:19 10° W 16:10:03 32° NNW 16:13:45 10° NE visible
24 Sep 2.8 15:56:07 10° W 15:59:28 23° NNW 16:02:48 10° NNE visible
